• In Hungary
  • List of Countries
  • For 7 days
  • Water Temperature
  • Satellite Maps
  • Weather Map
  • News
  • Weather Widgets
  • user-avatar
    Login

    Hourly Weather Puerto La Cruz

    Today, 25 February, Sunday

    Time Temperature Precipitation Wind Pressure Humidity
    00:00 +25°C° 0 mm 4 mps 737 mmHg 77%
    01:00 +23°C° 0 mm 4 mps 737 mmHg 79%
    02:00 +23°C° 0 mm 4 mps 737 mmHg 80%
    03:00 +23°C° 0 mm 4 mps 737 mmHg 81%
    04:00 +22°C° 0 mm 3 mps 737 mmHg 82%
    05:00 +22°C° 0 mm 3 mps 737 mmHg 83%
    06:00 +24°C° 0 mm 3 mps 737 mmHg 78%
    07:00 +25°C° 0 mm 3 mps 738 mmHg 73%
    08:00 +26°C° 0 mm 3 mps 738 mmHg 68%
    09:00 +29°C° 0 mm 3 mps 738 mmHg 60%
    10:00 +31°C° 0 mm 3 mps 739 mmHg 52%
    11:00 +35°C° 0 mm 3 mps 739 mmHg 44%
    12:00 +34°C° 0 mm 3 mps 738 mmHg 47%
    13:00 +33°C° 0 mm 3 mps 738 mmHg 49%
    14:00 +32°C° 0 mm 4 mps 737 mmHg 52%
    15:00 +32°C° 0 mm 4 mps 737 mmHg 54%
    16:00 +30°C° 0 mm 4 mps 736 mmHg 56%
    17:00 +30°C° 0 mm 5 mps 736 mmHg 57%
    18:00 +29°C° 0 mm 5 mps 736 mmHg 63%
    19:00 +27°C° 0 mm 5 mps 737 mmHg 69%
    20:00 +26°C° 0 mm 5 mps 737 mmHg 75%
    21:00 +26°C° 0 mm 5 mps 737 mmHg 76%
    22:00 +26°C° 0 mm 5 mps 738 mmHg 77%
    23:00 +26°C° 0 mm 5 mps 738 mmHg 77%

    Tomorrow, 26 February, Monday

    Time Temperature Precipitation Wind Pressure Humidity
    00:00 +25°C° 0.1 mm 5 mps 738 mmHg 79%
    01:00 +25°C° 0.1 mm 5 mps 738 mmHg 80%
    02:00 +25°C° 0.1 mm 4 mps 738 mmHg 82%
    03:00 +23°C° 0.1 mm 4 mps 737 mmHg 83%
    04:00 +23°C° 0.1 mm 4 mps 737 mmHg 84%
    05:00 +23°C° 0.1 mm 4 mps 737 mmHg 85%
    06:00 +23°C° 0 mm 4 mps 738 mmHg 81%
    07:00 +25°C° 0 mm 3 mps 738 mmHg 77%
    08:00 +26°C° 0 mm 3 mps 739 mmHg 73%
    09:00 +29°C° 0 mm 3 mps 739 mmHg 65%
    10:00 +31°C° 0 mm 3 mps 739 mmHg 56%
    11:00 +34°C° 0 mm 4 mps 739 mmHg 47%
    12:00 +33°C° 0.1 mm 4 mps 739 mmHg 50%
    13:00 +33°C° 0.1 mm 4 mps 738 mmHg 52%
    14:00 +32°C° 0.1 mm 4 mps 737 mmHg 54%
    15:00 +30°C° 0 mm 4 mps 737 mmHg 57%
    16:00 +30°C° 0 mm 5 mps 736 mmHg 59%
    17:00 +29°C° 0 mm 5 mps 736 mmHg 61%
    18:00 +28°C° 0 mm 5 mps 736 mmHg 65%
    19:00 +27°C° 0 mm 5 mps 737 mmHg 68%
    20:00 +26°C° 0 mm 5 mps 737 mmHg 72%
    21:00 +26°C° 0 mm 5 mps 737 mmHg 72%
    22:00 +26°C° 0 mm 5 mps 738 mmHg 71%
    23:00 +26°C° 0 mm 5 mps 738 mmHg 71%

    Day after tomorrow, 27 February, Tuesday

    Time Temperature Precipitation Wind Pressure Humidity
    00:00 +25°C° 0 mm 5 mps 738 mmHg 72%
    01:00 +25°C° 0 mm 4 mps 738 mmHg 72%
    02:00 +23°C° 0 mm 4 mps 737 mmHg 73%
    03:00 +23°C° 0 mm 4 mps 737 mmHg 74%
    04:00 +22°C° 0 mm 3 mps 737 mmHg 75%
    05:00 +22°C° 0 mm 3 mps 737 mmHg 76%
    06:00 +24°C° 0 mm 2 mps 737 mmHg 71%
    07:00 +25°C° 0 mm 2 mps 738 mmHg 66%
    08:00 +26°C° 0 mm 2 mps 738 mmHg 61%
    09:00 +29°C° 0 mm 2 mps 738 mmHg 53%
    10:00 +31°C° 0 mm 2 mps 738 mmHg 45%
    11:00 +35°C° 0 mm 3 mps 739 mmHg 37%
    12:00 +34°C° 0 mm 3 mps 738 mmHg 39%
    13:00 +34°C° 0 mm 4 mps 737 mmHg 41%
    14:00 +34°C° 0 mm 4 mps 736 mmHg 43%
    15:00 +33°C° 0 mm 4 mps 736 mmHg 49%
    16:00 +32°C° 0 mm 5 mps 735 mmHg 54%
    17:00 +29°C° 0 mm 5 mps 734 mmHg 60%
    18:00 +28°C° 0 mm 5 mps 735 mmHg 65%
    19:00 +27°C° 0 mm 5 mps 735 mmHg 71%
    20:00 +26°C° 0 mm 5 mps 736 mmHg 76%
    21:00 +26°C° 0 mm 5 mps 736 mmHg 76%
    22:00 +25°C° 0 mm 4 mps 737 mmHg 76%
    23:00 +25°C° 0 mm 4 mps 737 mmHg 76%

    28 February, Wednesday

    Time Temperature Precipitation Wind Pressure Humidity
    00:00 +25°C° 0 mm 4 mps 737 mmHg 77%
    01:00 +25°C° 0 mm 4 mps 736 mmHg 77%
    02:00 +23°C° 0 mm 4 mps 736 mmHg 77%
    03:00 +23°C° 0 mm 4 mps 736 mmHg 77%
    04:00 +23°C° 0 mm 4 mps 736 mmHg 76%
    05:00 +22°C° 0 mm 4 mps 736 mmHg 76%
    06:00 +24°C° 0 mm 3 mps 736 mmHg 71%
    07:00 +25°C° 0 mm 3 mps 737 mmHg 67%
    08:00 +26°C° 0 mm 3 mps 737 mmHg 62%
    09:00 +29°C° 0 mm 3 mps 738 mmHg 54%
    10:00 +31°C° 0 mm 3 mps 738 mmHg 47%
    11:00 +35°C° 0 mm 3 mps 738 mmHg 39%
    12:00 +34°C° 0 mm 4 mps 737 mmHg 41%
    13:00 +34°C° 0 mm 4 mps 736 mmHg 43%
    14:00 +34°C° 0 mm 4 mps 736 mmHg 45%
    15:00 +33°C° 0 mm 5 mps 735 mmHg 50%
    16:00 +30°C° 0 mm 5 mps 735 mmHg 55%
    17:00 +29°C° 0 mm 5 mps 734 mmHg 60%
    18:00 +28°C° 0 mm 5 mps 735 mmHg 65%
    19:00 +27°C° 0 mm 5 mps 735 mmHg 70%
    20:00 +26°C° 0 mm 5 mps 736 mmHg 76%
    21:00 +26°C° 0 mm 5 mps 736 mmHg 77%
    22:00 +25°C° 0 mm 4 mps 737 mmHg 78%
    23:00 +25°C° 0 mm 4 mps 737 mmHg 79%

    1 March, Thursday

    Time Temperature Precipitation Wind Pressure Humidity
    00:00 +25°C° 0 mm 4 mps 737 mmHg 79%
    01:00 +25°C° 0 mm 4 mps 737 mmHg 80%
    02:00 +23°C° 0 mm 4 mps 737 mmHg 81%
    03:00 +23°C° 0 mm 4 mps 736 mmHg 81%
    04:00 +23°C° 0 mm 4 mps 736 mmHg 81%
    05:00 +23°C° 0 mm 4 mps 736 mmHg 81%
    06:00 +23°C° 0 mm 4 mps 737 mmHg 77%
    07:00 +25°C° 0 mm 4 mps 737 mmHg 72%
    08:00 +26°C° 0 mm 4 mps 738 mmHg 67%
    09:00 +29°C° 0 mm 4 mps 738 mmHg 58%
    10:00 +32°C° 0 mm 4 mps 739 mmHg 49%
    11:00 +35°C° 0 mm 3 mps 739 mmHg 41%
    12:00 +35°C° 0 mm 4 mps 738 mmHg 41%
    13:00 +34°C° 0 mm 4 mps 737 mmHg 42%
    14:00 +34°C° 0 mm 4 mps 736 mmHg 43%
    15:00 +33°C° 0 mm 4 mps 736 mmHg 48%
    16:00 +32°C° 0 mm 5 mps 736 mmHg 52%
    17:00 +29°C° 0 mm 5 mps 735 mmHg 57%
    18:00 +28°C° 0 mm 5 mps 736 mmHg 63%
    19:00 +27°C° 0 mm 5 mps 736 mmHg 68%
    20:00 +26°C° 0 mm 5 mps 737 mmHg 73%
    21:00 +26°C° 0 mm 5 mps 737 mmHg 75%
    22:00 +26°C° 0 mm 5 mps 738 mmHg 77%
    23:00 +25°C° 0 mm 5 mps 738 mmHg 79%

    2 March, Friday

    Time Temperature Precipitation Wind Pressure Humidity
    00:00 +25°C° 0 mm 4 mps 738 mmHg 80%
    01:00 +25°C° 0 mm 4 mps 737 mmHg 81%
    02:00 +23°C° 0 mm 4 mps 737 mmHg 83%
    03:00 +23°C° 0 mm 4 mps 737 mmHg 83%
    04:00 +23°C° 0 mm 4 mps 737 mmHg 84%
    05:00 +23°C° 0 mm 4 mps 737 mmHg 84%
    06:00 +25°C° 0 mm 4 mps 737 mmHg 79%
    07:00 +26°C° 0 mm 4 mps 738 mmHg 74%
    08:00 +27°C° 0 mm 4 mps 738 mmHg 69%
    09:00 +29°C° 0 mm 3 mps 739 mmHg 60%
    10:00 +33°C° 0 mm 3 mps 739 mmHg 51%
    11:00 +36°C° 0 mm 3 mps 739 mmHg 42%
    12:00 +35°C° 0 mm 3 mps 738 mmHg 44%
    13:00 +34°C° 0 mm 3 mps 737 mmHg 46%
    14:00 +33°C° 0 mm 4 mps 736 mmHg 48%
    15:00 +32°C° 0 mm 4 mps 736 mmHg 50%
    16:00 +32°C° 0 mm 4 mps 735 mmHg 51%
    17:00 +32°C° 0 mm 4 mps 735 mmHg 52%
    18:00 +30°C° 0 mm 4 mps 735 mmHg 60%
    19:00 +28°C° 0 mm 4 mps 735 mmHg 67%
    20:00 +26°C° 0 mm 5 mps 736 mmHg 75%
    21:00 +26°C° 0 mm 5 mps 736 mmHg 77%
    22:00 +26°C° 0 mm 4 mps 736 mmHg 79%
    23:00 +25°C° 0 mm 4 mps 737 mmHg 81%
    Show more